#timestamp,LO_Frequency,Hit,StdDev 
1664546415.1,286047000.0,P
1664546416.0,286047000.0,N
1664546435.8,286047002.5,N
1664546455.7,286047000.7,N
1664546475.5,286047000.0,N
1664546495.3,286046999.9,N
1664546515.2,286047001.8,N
1664546535.0,286047001.6,N
1664546535.9,286047001.6,N
1664546555.8,286047001.5,N
1664546575.6,286047004.3,Y
1664546595.4,286047002.2,P
1664546615.3,286047001.9,P
1664546635.1,286047002.2,P
1664546655.9,286047004.3,Y
1664546675.7,286046998.2,P
1664546695.5,286046998.2,N
1664546715.4,286047000.2,N
1664546735.2,286047000.3,N
1664546755.1,286047000.4,N
1664546756.0,286047000.4,N
1664546775.8,286047000.6,N
1664546795.6,286046998.5,N
1664546815.5,286046998.5,N
1664546835.3,286046998.4,N
1664546855.1,286046998.3,N
1664546875.9,286046998.9,N
1664546895.7,286047000.9,N
1664546915.6,286047002.8,N
1664546935.4,286047002.8,N
1664546955.2,286047002.7,N
1664546975.1,286047002.3,N
1664546976.0,286047002.3,N
1664546995.8,286047002.8,N
1664547015.7,286047002.2,N
1664547035.5,286047000.3,N
1664547055.3,286047000.4,N
1664547075.2,286047000.3,N
1664547095.0,286047000.1,N
1664547095.9,286047000.1,N
1664547115.7,286047002.5,N
1664547135.6,286047002.0,N
1664547155.4,286047001.5,N
1664547175.3,286047001.9,N
1664547195.1,286047002.7,N
1664547196.0,286047002.7,N
1664547215.8,286047001.6,N
1664547235.7,286047002.6,N
1664547255.5,286047001.5,N
1664547275.3,286047004.1,N
1664547295.2,286047004.2,N
1664547315.0,286047003.1,N
1664547315.9,286047003.1,N
1664547335.8,286047004.4,N
1664547355.6,286047004.4,N
1664547375.4,286047004.0,N
1664547395.3,286047004.2,Y
1664547415.1,286047000.3,P
1664547435.8,286047002.8,N
1664547455.7,286047000.1,N
1664547475.5,286047000.0,N
1664547495.4,286047002.8,N
1664547515.2,286047002.3,N
1664547535.0,286047002.1,N
1664547535.9,286047002.1,N
1664547555.8,286047002.5,N
1664547575.6,286047002.4,N
1664547595.5,286047001.8,N
1664547615.3,286047002.6,N
1664547635.1,286047002.6,N
1664547655.9,286047002.8,N
1664547675.7,286047002.6,N
1664547695.5,286047002.3,N
1664547715.4,286047002.4,N
1664547735.2,286047002.4,N
1664547755.0,286046999.8,N
1664547756.0,286046999.8,N
1664547775.0,286047000.5,N
1664547775.9,286047000.5,N
1664547795.7,286047002.4,N
1664547815.6,286047001.9,N
1664547835.4,286047001.9,N
1664547855.3,286047002.6,N
1664547875.1,286047002.7,N
1664547895.8,286047002.6,N
1664547915.7,286047002.7,N
1664547935.5,286047002.2,N
1664547955.4,286047002.0,N
1664547975.2,286047002.7,N
1664547995.0,286046999.8,N
1664547995.9,286046999.8,N
1664548015.8,286047001.8,N
1664548035.6,286047001.5,N
1664548055.5,286047001.4,N
1664548075.3,286047001.3,N
1664548095.1,286047002.2,N
1664548115.9,286047001.8,N
1664548135.7,286047004.0,Y
1664548155.5,286046999.7,P
1664548175.4,286046999.7,N
1664548195.2,286047001.0,N
1664548215.1,286047001.1,N
1664548216.0,286047001.1,N
1664548235.8,286047000.7,N
1664548255.6,286047000.3,N
1664548275.5,286047002.3,Y
1664548295.3,286047004.0,P
1664548315.2,286047001.7,N
1664548335.9,286047002.1,N
1664548355.7,286047000.2,N
1664548375.6,286046999.7,N
1664548395.4,286047002.2,N
1664548415.2,286047001.9,N
1664548435.1,286046999.9,N
1664548436.0,286046999.9,N
1664548455.8,286047001.7,N
1664548475.7,286047002.1,N
1664548495.5,286047001.8,N
1664548515.3,286047001.7,N
1664548535.2,286047002.5,N
1664548555.0,286047002.1,N
1664548555.9,286047002.1,N
1664548575.7,286047002.2,N
1664548595.6,286046999.9,N
1664548615.4,286047002.4,N
1664548635.3,286047002.4,N
1664548655.1,286047000.5,N
1664548656.0,286047000.5,N
1664548675.8,286047000.2,N
1664548695.7,286047000.3,N
1664548715.5,286047000.2,N
1664548735.3,286047001.0,N
1664548755.2,286046999.9,N
1664548775.0,286047002.8,N
1664548775.9,286047002.8,N
1664548795.8,286047001.8,N
1664548815.6,286047000.3,N
1664548835.4,286046999.9,N
1664548855.3,286047000.1,N
1664548875.1,286047000.0,N
1664548895.8,286047000.1,N
1664548915.7,286047002.2,N
1664548935.5,286047002.3,N
1664548955.4,286046999.9,N
1664548975.2,286047002.0,N
1664548995.0,286047000.2,N
1664548995.9,286047000.2,N
1664549015.8,286047002.7,N
1664549035.6,286047002.6,N
1664549055.4,286047001.9,N
1664549075.3,286047002.2,N
1664549095.1,286047002.1,N
1664549115.9,286047002.1,N
1664549135.7,286047002.6,N
1664549155.5,286047002.2,N
1664549175.4,286047001.5,N
1664549195.2,286047001.6,N
1664549215.0,286046999.8,N
1664549216.0,286046999.8,N
1664549235.8,286047001.8,N
1664549255.6,286047000.1,N
1664549275.5,286047002.8,N
1664549295.3,286047000.1,N
1664549315.1,286047001.2,N
1664549335.9,286047001.1,N
1664549355.7,286047000.6,N
1664549375.6,286047001.6,N
1664549395.4,286047001.4,N
1664549415.2,286047003.1,Y
1664549435.1,286047002.0,P
1664549436.0,286047002.0,P
1664549455.8,286047001.9,P
1664549475.7,286047001.4,Y
1664549495.5,286047000.5,P
1664549515.3,286046998.8,N
1664549535.2,286046998.6,N
1664549555.0,286046998.9,N
1664549555.9,286046998.9,N
1664549575.8,286046998.6,N
1664549595.6,286046998.4,N
1664549615.4,286046998.3,N
1664549635.3,286046998.8,N
1664549655.1,286046997.0,N
1664549675.9,286046999.5,N
1664549695.7,286046999.3,N
1664549715.5,286046998.2,N
1664549735.4,286046999.4,N
1664549755.2,286046997.1,N
1664549775.0,286046997.8,N
1664549775.9,286046997.8,N
1664549795.8,286046996.8,N
1664549815.6,286046997.2,N
1664549835.4,286046997.9,N
1664549855.3,286046997.5,N
1664549875.1,286046995.1,Y
1664549895.9,286046998.7,P
1664549915.7,286046999.6,P
1664549935.5,286046999.0,N
1664549955.4,286046998.4,Y
1664549975.2,286047001.2,P
1664549995.1,286047001.1,N
1664549996.0,286047001.1,N
